| time (UTC) | temp C | wind direction | speed KPH | gust KPH | rain 1hr cm | rain 24hr cm | rain mn cm | humidity % | barometer mb |
| 20260507101536 | 8 | 0 | 0.0 | 14.5 | 0.00 | 0.64 | 0.00 | 61 | 1012.1 |
| 20260507101015 | 9 | 0 | 1.6 | 14.5 | 0.00 | 0.64 | 0.00 | 60 | 1012.0 |
| 20260507100516 | 9 | 24 | 1.6 | 12.9 | 0.00 | 0.64 | 0.00 | 60 | 1011.8 |
| 20260507100032 | 9 | 16 | 1.6 | 12.9 | 0.00 | 0.64 | 0.00 | 60 | 1011.8 |
| 20260507095518 | 9 | 0 | 0.0 | 0.0 | 0.00 | 0.64 | 0.00 | 62 | 1011.7 |
| 20260507095013 | 9 | 0 | 0.0 | 0.0 | 0.00 | 0.64 | 0.00 | 63 | 1011.7 |
| 20260507094535 | 9 | 0 | 0.0 | 0.0 | 0.00 | 0.64 | 0.00 | 62 | 1011.7 |
| 20260507094020 | 9 | 0 | 0.0 | 0.0 | 0.00 | 0.64 | 0.00 | 62 | 1011.6 |
| 20260507093512 | 9 | 0 | 0.0 | 0.0 | 0.00 | 0.64 | 0.00 | 63 | 1011.6 |
| 20260507093030 | 9 | 0 | 0.0 | 0.0 | 0.00 | 0.64 | 0.00 | 62 | 1011.5 |
| 20260507092513 | 9 | 0 | 0.0 | 0.0 | 0.00 | 0.64 | 0.00 | 62 | 1011.4 |
| 20260507092013 | 9 | 0 | 0.0 | 0.0 | 0.00 | 0.64 | 0.00 | 61 | 1011.4 |
| 20260507091533 | 9 | 0 | 0.0 | 0.0 | 0.00 | 0.64 | 0.00 | 62 | 1011.4 |
| 20260507091013 | 9 | 0 | 0.0 | 0.0 | 0.00 | 0.64 | 0.00 | 61 | 1011.4 |
| 20260507090512 | 9 | 0 | 0.0 | 0.0 | 0.00 | 0.64 | 0.00 | 63 | 1011.4 |
| 20260507090029 | 9 | 0 | 0.0 | 0.0 | 0.00 | 0.64 | 0.00 | 63 | 1011.4 |
| 20260507085515 | 10 | 0 | 0.0 | 0.0 | 0.00 | 0.64 | 0.00 | 61 | 1011.4 |
| 20260507085015 | 10 | 0 | 0.0 | 0.0 | 0.00 | 0.64 | 0.00 | 62 | 1011.2 |
| 20260507084531 | 10 | 0 | 0.0 | 0.0 | 0.00 | 0.64 | 0.00 | 62 | 1011.3 |
| 20260507084018 | 10 | 0 | 0.0 | 0.0 | 0.00 | 0.64 | 0.00 | 62 | 1011.3 |
| 20260507083513 | 10 | 0 | 0.0 | 0.0 | 0.00 | 0.64 | 0.00 | 63 | 1011.4 |
| 20260507083032 | 10 | 0 | 0.0 | 0.0 | 0.00 | 0.64 | 0.00 | 62 | 1011.3 |
| 20260507082514 | 10 | 0 | 0.0 | 0.0 | 0.00 | 0.64 | 0.00 | 64 | 1011.3 |
| 20260507082012 | 10 | 0 | 0.0 | 0.0 | 0.00 | 0.64 | 0.00 | 63 | 1011.4 |
| 20260507081537 | 10 | 0 | 0.0 | 0.0 | 0.00 | 0.64 | 0.00 | 62 | 1011.3 |
| 20260507081012 | 10 | 0 | 0.0 | 16.1 | 0.00 | 0.64 | 0.00 | 64 | 1011.3 |
| 20260507080514 | 10 | 0 | 3.2 | 16.1 | 0.00 | 0.64 | 0.00 | 61 | 1011.3 |
| 20260507080031 | 10 | 0 | 0.0 | 0.0 | 0.00 | 0.64 | 0.00 | 61 | 1011.3 |
| 20260507075512 | 10 | 0 | 0.0 | 0.0 | 0.00 | 0.64 | 0.00 | 62 | 1011.4 |
| 20260507075012 | 10 | 0 | 0.0 | 0.0 | 0.00 | 0.64 | 0.00 | 61 | 1011.4 |
| 20260507074531 | 10 | 0 | 0.0 | 0.0 | 0.00 | 0.64 | 0.00 | 61 | 1011.5 |
| 20260507074013 | 10 | 0 | 0.0 | 14.5 | 0.00 | 0.64 | 0.00 | 60 | 1011.5 |
| 20260507073512 | 10 | 0 | 1.6 | 20.9 | 0.00 | 0.64 | 0.00 | 59 | 1011.5 |
| 20260507073031 | 10 | 337 | 0.0 | 20.9 | 0.00 | 0.64 | 0.00 | 58 | 1011.5 |
| 20260507072515 | 10 | 41 | 9.7 | 20.9 | 0.00 | 0.64 | 0.00 | 58 | 1011.5 |
| 20260507072014 | 10 | 313 | 3.2 | 16.1 | 0.00 | 0.64 | 0.00 | 60 | 1011.5 |
| 20260507071530 | 10 | 0 | 1.6 | 20.9 | 0.00 | 0.64 | 0.00 | 59 | 1011.5 |
| 20260507071012 | 10 | 0 | 0.0 | 22.5 | 0.00 | 0.64 | 0.00 | 59 | 1011.5 |
| 20260507070513 | 10 | 0 | 0.0 | 22.5 | 0.00 | 0.64 | 0.00 | 60 | 1011.5 |
| 20260507070044 | 11 | 352 | 3.2 | 19.3 | 0.00 | 0.64 | 0.00 | 60 | 1011.6 |
| 20260507065513 | 11 | 0 | 0.0 | 17.7 | 0.00 | 0.64 | 0.00 | 62 | 1011.6 |
| 20260507065015 | 11 | 0 | 8.0 | 24.1 | 0.00 | 0.64 | 0.00 | 62 | 1011.5 |
| 20260507064530 | 11 | 333 | 0.0 | 24.1 | 0.00 | 0.64 | 0.00 | 65 | 1011.3 |
| 20260507064015 | 11 | 347 | 3.2 | 20.9 | 0.00 | 0.64 | 0.00 | 66 | 1011.5 |
| 20260507063513 | 11 | 355 | 8.0 | 20.9 | 0.00 | 0.64 | 0.00 | 67 | 1011.5 |
| 20260507063035 | 11 | 355 | 3.2 | 16.1 | 0.00 | 0.64 | 0.00 | 70 | 1011.4 |
| 20260507062515 | 11 | 0 | 1.6 | 17.7 | 0.00 | 0.64 | 0.00 | 71 | 1011.4 |
| 20260507062015 | 11 | 5 | 6.4 | 19.3 | 0.00 | 0.64 | 0.00 | 72 | 1011.4 |
| 20260507061537 | 11 | 13 | 6.4 | 19.3 | 0.00 | 0.64 | 0.00 | 73 | 1011.6 |
| 20260507061015 | 11 | 340 | 8.0 | 17.7 | 0.00 | 0.64 | 0.00 | 74 | 1011.6 |
| 20260507060514 | 11 | 355 | 8.0 | 17.7 | 0.00 | 0.64 | 0.00 | 75 | 1011.6 |
| 20260507060032 | 11 | 352 | 6.4 | 16.1 | 0.00 | 0.64 | 0.00 | 77 | 1011.7 |
| 20260507055516 | 11 | 355 | 6.4 | 14.5 | 0.00 | 0.64 | 0.00 | 78 | 1011.6 |
| 20260507055013 | 11 | 360 | 1.6 | 12.9 | 0.00 | 0.64 | 0.00 | 79 | 1011.6 |
| 20260507054533 | 11 | 360 | 0.0 | 12.9 | 0.00 | 0.64 | 0.00 | 79 | 1011.7 |
| 20260507054012 | 11 | 355 | 8.0 | 14.5 | 0.00 | 0.64 | 0.00 | 79 | 1011.7 |
| 20260507053515 | 11 | 0 | 3.2 | 14.5 | 0.00 | 0.64 | 0.00 | 79 | 1011.7 |
| 20260507053031 | 11 | 5 | 8.0 | 14.5 | 0.00 | 0.64 | 0.00 | 79 | 1011.6 |
| 20260507052515 | 11 | 11 | 6.4 | 14.5 | 0.00 | 0.64 | 0.00 | 78 | 1011.7 |
| 20260507052012 | 11 | 355 | 4.8 | 19.3 | 0.00 | 0.64 | 0.00 | 78 | 1011.5 |
| 20260507051532 | 11 | 0 | 1.6 | 19.3 | 0.00 | 0.64 | 0.00 | 78 | 1011.7 |
| 20260507051016 | 11 | 5 | 4.8 | 14.5 | 0.00 | 0.64 | 0.00 | 79 | 1011.7 |
| 20260507050515 | 11 | 9 | 6.4 | 14.5 | 0.00 | 0.64 | 0.00 | 80 | 1011.7 |
| 20260507050036 | 11 | 0 | 0.0 | 0.0 | 0.00 | 0.64 | 0.00 | 81 | 1011.6 |
| 20260507045514 | 11 | 0 | 0.0 | 0.0 | 0.00 | 0.64 | 0.00 | 82 | 1011.5 |
| 20260507045015 | 11 | 0 | 0.0 | 0.0 | 0.00 | 0.64 | 0.00 | 82 | 1011.5 |
| 20260507044531 | 11 | 0 | 0.0 | 0.0 | 0.00 | 0.64 | 0.00 | 83 | 1011.5 |
| 20260507044015 | 11 | 0 | 0.0 | 0.0 | 0.00 | 0.64 | 0.00 | 84 | 1011.6 |
| 20260507043512 | 11 | 0 | 0.0 | 0.0 | 0.00 | 0.64 | 0.00 | 85 | 1011.7 |
| 20260507043030 | 11 | 0 | 0.0 | 0.0 | 0.00 | 0.64 | 0.00 | 86 | 1011.7 |
| 20260507042515 | 11 | 0 | 0.0 | 0.0 | 0.00 | 0.64 | 0.00 | 86 | 1011.6 |
| 20260507042019 | 11 | 0 | 0.0 | 0.0 | 0.00 | 0.64 | 0.00 | 87 | 1011.5 |
| 20260507041530 | 11 | 0 | 0.0 | 0.0 | 0.00 | 0.64 | 0.00 | 87 | 1011.3 |
| 20260507041015 | 11 | 0 | 0.0 | 0.0 | 0.00 | 0.64 | 0.00 | 87 | 1011.5 |
| 20260507040514 | 11 | 0 | 0.0 | 0.0 | 0.00 | 0.64 | 0.00 | 86 | 1011.5 |
| 20260507040033 | 11 | 0 | 0.0 | 0.0 | 0.00 | 0.64 | 0.00 | 86 | 1011.6 |
| 20260507035520 | 11 | 0 | 0.0 | 0.0 | 0.00 | 0.64 | 0.64 | 86 | 1011.5 |
| 20260507035014 | 11 | 0 | 0.0 | 0.0 | 0.00 | 0.64 | 0.64 | 86 | 1011.4 |
| 20260507034540 | 12 | 0 | 0.0 | 0.0 | 0.00 | 0.64 | 0.64 | 85 | 1011.5 |
| 20260507034013 | 12 | 0 | 0.0 | 0.0 | 0.00 | 0.64 | 0.64 | 85 | 1011.2 |
| 20260507033513 | 12 | 0 | 0.0 | 0.0 | 0.00 | 0.64 | 0.64 | 85 | 1011.2 |
| 20260507033043 | 12 | 0 | 0.0 | 0.0 | 0.00 | 0.64 | 0.64 | 84 | 1011.3 |
| 20260507032513 | 12 | 0 | 0.0 | 0.0 | 0.00 | 0.64 | 0.64 | 84 | 1011.3 |
| 20260507032012 | 12 | 0 | 0.0 | 0.0 | 0.00 | 0.64 | 0.64 | 83 | 1011.2 |
| 20260507031545 | 12 | 0 | 0.0 | 0.0 | 0.00 | 0.64 | 0.64 | 82 | 1010.9 |
| 20260507031016 | 12 | 0 | 0.0 | 0.0 | 0.00 | 0.64 | 0.64 | 80 | 1011.2 |
| 20260507030513 | 12 | 0 | 0.0 | 0.0 | 0.00 | 0.64 | 0.64 | 80 | 1010.8 |
| 20260507030033 | 12 | 0 | 0.0 | 0.0 | 0.00 | 0.64 | 0.64 | 80 | 1010.9 |
| 20260507025513 | 12 | 0 | 0.0 | 0.0 | 0.00 | 0.64 | 0.64 | 80 | 1011.2 |
| 20260507025018 | 12 | 0 | 0.0 | 0.0 | 0.00 | 0.64 | 0.64 | 80 | 1011.0 |
| 20260507024534 | 12 | 0 | 0.0 | 0.0 | 0.00 | 0.64 | 0.64 | 80 | 1011.1 |
| 20260507024015 | 12 | 0 | 0.0 | 0.0 | 0.00 | 0.64 | 0.64 | 81 | 1011.2 |
| 20260507023515 | 12 | 0 | 0.0 | 0.0 | 0.00 | 0.64 | 0.64 | 81 | 1011.2 |
| 20260507023034 | 12 | 0 | 0.0 | 0.0 | 0.00 | 0.64 | 0.64 | 81 | 1011.4 |
| 20260507022513 | 12 | 0 | 0.0 | 14.5 | 0.00 | 0.64 | 0.64 | 81 | 1011.2 |
| 20260507022014 | 12 | 0 | 0.0 | 14.5 | 0.00 | 0.64 | 0.64 | 81 | 1011.3 |
| 20260507021533 | 12 | 355 | 1.6 | 17.7 | 0.00 | 0.64 | 0.64 | 81 | 1011.1 |
| 20260507021015 | 13 | 0 | 0.0 | 17.7 | 0.00 | 0.64 | 0.64 | 82 | 1011.1 |
| 20260507020515 | 13 | 0 | 4.8 | 20.9 | 0.00 | 0.64 | 0.64 | 82 | 1011.0 |
| 20260507020034 | 13 | 31 | 8.0 | 20.9 | 0.00 | 0.64 | 0.64 | 82 | 1010.9 |
| 20260507015514 | 13 | 339 | 1.6 | 16.1 | 0.00 | 0.64 | 0.64 | 82 | 1010.9 |
| 20260507015012 | 13 | 0 | 3.2 | 22.5 | 0.00 | 0.64 | 0.64 | 82 | 1011.3 |
| 20260507014541 | 13 | 336 | 14.5 | 22.5 | 0.00 | 0.64 | 0.64 | 81 | 1011.2 |
| 20260507014012 | 13 | 339 | 14.5 | 22.5 | 0.00 | 0.64 | 0.64 | 81 | 1011.1 |
| 20260507013513 | 13 | 336 | 16.1 | 25.7 | 0.00 | 0.64 | 0.64 | 81 | 1011.2 |
| 20260507013038 | 13 | 346 | 14.5 | 25.7 | 0.00 | 0.64 | 0.64 | 82 | 1011.2 |
| 20260507012515 | 13 | 340 | 17.7 | 25.7 | 0.00 | 0.64 | 0.64 | 81 | 1011.3 |
| 20260507012014 | 13 | 338 | 12.9 | 20.9 | 0.00 | 0.64 | 0.64 | 82 | 1011.1 |
| 20260507011536 | 13 | 352 | 16.1 | 24.1 | 0.00 | 0.64 | 0.64 | 82 | 1011.2 |
| 20260507011013 | 14 | 344 | 17.7 | 24.1 | 0.00 | 0.64 | 0.64 | 82 | 1011.0 |
| 20260507010513 | 14 | 341 | 17.7 | 24.1 | 0.00 | 0.64 | 0.64 | 82 | 1011.1 |
| 20260507010040 | 14 | 355 | 3.2 | 22.5 | 0.00 | 0.64 | 0.64 | 82 | 1010.9 |
| 20260507005514 | 14 | 0 | 1.6 | 22.5 | 0.00 | 0.64 | 0.64 | 82 | 1010.6 |
| 20260507005019 | 14 | 0 | 3.2 | 22.5 | 0.00 | 0.64 | 0.64 | 81 | 1010.6 |
| 20260507004532 | 14 | 0 | 1.6 | 17.7 | 0.00 | 0.64 | 0.64 | 81 | 1010.7 |
| 20260507004015 | 14 | 355 | 8.0 | 17.7 | 0.00 | 0.64 | 0.64 | 81 | 1010.8 |
| 20260507003513 | 15 | 292 | 0.0 | 24.1 | 0.00 | 0.64 | 0.64 | 82 | 1010.7 |
| 20260507003031 | 15 | 0 | 4.8 | 24.1 | 0.00 | 0.64 | 0.64 | 82 | 1010.4 |
| 20260507002513 | 15 | 302 | 1.6 | 12.9 | 0.00 | 0.64 | 0.64 | 82 | 1010.3 |
| 20260507002014 | 15 | 0 | 0.0 | 0.0 | 0.00 | 0.64 | 0.64 | 83 | 1010.1 |
| 20260507001534 | 15 | 0 | 0.0 | 0.0 | 0.00 | 0.64 | 0.64 | 82 | 1010.0 |
| 20260507001011 | 15 | 0 | 0.0 | 0.0 | 0.00 | 0.64 | 0.64 | 82 | 1009.8 |
| 20260507000513 | 15 | 0 | 0.0 | 12.9 | 0.00 | 0.64 | 0.64 | 81 | 1009.8 |
| 20260507000030 | 15 | 0 | 0.0 | 22.5 | 0.00 | 0.64 | 0.64 | 82 | 1009.6 |
| 20260506235516 | 15 | 333 | 6.4 | 22.5 | 0.00 | 0.64 | 0.64 | 82 | 1009.7 |
| 20260506235015 | 15 | 335 | 14.5 | 22.5 | 0.00 | 0.64 | 0.64 | 82 | 1009.6 |
| 20260506234530 | 15 | 333 | 14.5 | 22.5 | 0.00 | 0.64 | 0.64 | 82 | 1009.4 |
| 20260506234015 | 15 | 355 | 16.1 | 22.5 | 0.00 | 0.64 | 0.64 | 82 | 1009.2 |
| 20260506233513 | 15 | 329 | 14.5 | 25.7 | 0.00 | 0.64 | 0.64 | 83 | 1009.4 |
| 20260506233030 | 15 | 348 | 17.7 | 25.7 | 0.00 | 0.64 | 0.64 | 83 | 1009.0 |
| 20260506232512 | 15 | 360 | 17.7 | 22.5 | 0.00 | 0.64 | 0.64 | 83 | 1008.7 |
| 20260506232014 | 15 | 337 | 12.9 | 20.9 | 0.00 | 0.64 | 0.64 | 83 | 1008.5 |
| 20260506231534 | 15 | 340 | 14.5 | 20.9 | 0.00 | 0.64 | 0.64 | 82 | 1008.6 |
| 20260506231013 | 15 | 15 | 12.9 | 20.9 | 0.00 | 0.64 | 0.64 | 82 | 1008.8 |
| 20260506230513 | 15 | 11 | 8.0 | 19.3 | 0.00 | 0.64 | 0.64 | 83 | 1008.8 |
| 20260506230032 | 15 | 342 | 8.0 | 19.3 | 0.00 | 0.64 | 0.64 | 83 | 1008.8 |
| 20260506225515 | 16 | 0 | 1.6 | 22.5 | 0.00 | 0.64 | 0.64 | 83 | 1008.8 |
| 20260506225020 | 16 | 0 | 1.6 | 24.1 | 0.00 | 0.64 | 0.64 | 83 | 1008.9 |
| 20260506224531 | 16 | 327 | 9.7 | 24.1 | 0.00 | 0.64 | 0.64 | 83 | 1008.8 |
| 20260506224015 | 16 | 327 | 8.0 | 27.4 | 0.00 | 0.64 | 0.64 | 83 | 1008.7 |
| 20260506223514 | 16 | 333 | 14.5 | 29.0 | 0.00 | 0.64 | 0.64 | 84 | 1008.5 |
| 20260506223032 | 16 | 329 | 19.3 | 29.0 | 0.00 | 0.64 | 0.64 | 84 | 1008.3 |
| 20260506222514 | 16 | 348 | 17.7 | 32.2 | 0.00 | 0.64 | 0.64 | 86 | 1008.2 |
| 20260506222013 | 16 | 360 | 22.5 | 32.2 | 0.00 | 0.64 | 0.64 | 85 | 1008.1 |
| 20260506221532 | 16 | 340 | 22.5 | 32.2 | 0.00 | 0.64 | 0.64 | 86 | 1008.2 |
| 20260506221012 | 16 | 13 | 17.7 | 30.6 | 0.00 | 0.64 | 0.64 | 86 | 1008.2 |
| 20260506220514 | 16 | 342 | 20.9 | 30.6 | 0.00 | 0.64 | 0.64 | 86 | 1008.2 |
| 20260506220032 | 17 | 341 | 14.5 | 27.4 | 0.00 | 0.64 | 0.64 | 87 | 1008.1 |
| 20260506215513 | 17 | 344 | 11.3 | 33.8 | 0.00 | 0.64 | 0.64 | 87 | 1008.0 |
| 20260506215015 | 17 | 329 | 16.1 | 33.8 | 0.00 | 0.64 | 0.64 | 86 | 1007.9 |
| 20260506214530 | 17 | 316 | 17.7 | 33.8 | 0.00 | 0.64 | 0.64 | 86 | 1007.8 |
| 20260506214015 | 17 | 308 | 14.5 | 20.9 | 0.00 | 0.64 | 0.64 | 87 | 1007.5 |
| 20260506213513 | 17 | 340 | 9.7 | 16.1 | 0.00 | 0.64 | 0.64 | 88 | 1007.4 |
| 20260506213032 | 18 | 346 | 8.0 | 16.1 | 0.00 | 0.64 | 0.64 | 90 | 1007.4 |
| 20260506212513 | 18 | 355 | 4.8 | 14.5 | 0.00 | 0.64 | 0.64 | 90 | 1007.4 |
| 20260506212015 | 18 | 315 | 6.4 | 14.5 | 0.00 | 0.64 | 0.64 | 90 | 1007.2 |
| 20260506211530 | 18 | 0 | 4.8 | 12.9 | 0.00 | 0.64 | 0.64 | 91 | 1007.1 |
| 20260506211014 | 18 | 342 | 0.0 | 9.7 | 0.00 | 0.64 | 0.64 | 92 | 1007.1 |
| 20260506210513 | 18 | 323 | 4.8 | 9.7 | 0.00 | 0.64 | 0.64 | 92 | 1007.1 |
| 20260506210034 | 17 | 309 | 1.6 | 6.4 | 0.00 | 0.64 | 0.64 | 93 | 1007.0 |
| 20260506205512 | 17 | 0 | 0.0 | 12.9 | 0.00 | 0.64 | 0.64 | 92 | 1007.0 |
| 20260506205014 | 17 | 0 | 4.8 | 12.9 | 0.00 | 0.64 | 0.64 | 92 | 1006.9 |
| 20260506204531 | 17 | 290 | 3.2 | 12.9 | 0.00 | 0.64 | 0.64 | 93 | 1006.9 |
| 20260506204014 | 17 | 304 | 3.2 | 8.0 | 0.00 | 0.64 | 0.64 | 94 | 1006.9 |
| 20260506203515 | 17 | 0 | 0.0 | 0.0 | 0.00 | 0.64 | 0.64 | 94 | 1006.8 |
| 20260506203038 | 17 | 0 | 0.0 | 1.6 | 0.00 | 0.64 | 0.64 | 94 | 1006.7 |
| 20260506202513 | 17 | 0 | 0.0 | 1.6 | 0.00 | 0.64 | 0.64 | 93 | 1006.8 |
| 20260506202017 | 17 | 0 | 0.0 | 6.4 | 0.00 | 0.64 | 0.64 | 93 | 1006.8 |
| 20260506201537 | 17 | 0 | 0.0 | 8.0 | 0.00 | 0.64 | 0.64 | 93 | 1006.7 |
| 20260506201014 | 17 | 213 | 1.6 | 9.7 | 0.00 | 0.64 | 0.64 | 94 | 1006.7 |
| 20260506200514 | 17 | 207 | 1.6 | 11.3 | 0.00 | 0.64 | 0.64 | 94 | 1006.8 |
| 20260506200035 | 17 | 206 | 0.0 | 11.3 | 0.00 | 0.64 | 0.64 | 95 | 1006.8 |
| 20260506195516 | 17 | 0 | 0.0 | 4.8 | 0.00 | 0.64 | 0.64 | 95 | 1006.8 |
| 20260506195015 | 17 | 0 | 0.0 | 4.8 | 0.00 | 0.64 | 0.64 | 95 | 1006.8 |
| 20260506194531 | 17 | 0 | 0.0 | 4.8 | 0.00 | 0.64 | 0.64 | 95 | 1006.9 |
| 20260506194019 | 17 | 0 | 0.0 | 0.0 | 0.00 | 0.64 | 0.64 | 95 | 1007.0 |
| 20260506193512 | 17 | 0 | 0.0 | 0.0 | 0.00 | 0.64 | 0.64 | 95 | 1007.1 |
| 20260506193030 | 17 | 0 | 0.0 | 1.6 | 0.00 | 0.64 | 0.64 | 95 | 1007.1 |
| 20260506192515 | 17 | 0 | 0.0 | 1.6 | 0.00 | 0.64 | 0.64 | 95 | 1007.2 |
| 20260506192017 | 17 | 0 | 0.0 | 0.0 | 0.00 | 0.64 | 0.64 | 95 | 1007.2 |
| 20260506191532 | 17 | 0 | 0.0 | 6.4 | 0.00 | 0.64 | 0.64 | 95 | 1007.2 |
| 20260506191014 | 17 | 0 | 0.0 | 8.0 | 0.00 | 0.64 | 0.64 | 95 | 1007.2 |
| 20260506190513 | 17 | 0 | 1.6 | 8.0 | 0.00 | 0.64 | 0.64 | 95 | 1007.2 |
| 20260506190038 | 17 | 0 | 1.6 | 8.0 | 0.00 | 0.64 | 0.64 | 95 | 1007.2 |
| 20260506185514 | 17 | 209 | 0.0 | 8.0 | 0.00 | 0.64 | 0.64 | 96 | 1007.2 |
| 20260506185014 | 17 | 0 | 1.6 | 8.0 | 0.00 | 0.64 | 0.64 | 96 | 1007.2 |
| 20260506184543 | 17 | 0 | 0.0 | 0.0 | 0.00 | 0.64 | 0.64 | 96 | 1007.2 |
| 20260506184018 | 16 | 0 | 0.0 | 0.0 | 0.03 | 0.64 | 0.64 | 97 | 1007.4 |
| 20260506183513 | 16 | 0 | 0.0 | 0.0 | 0.03 | 0.64 | 0.64 | 97 | 1007.4 |
| 20260506183033 | 16 | 0 | 0.0 | 4.8 | 0.03 | 0.64 | 0.64 | 96 | 1007.5 |
| 20260506182512 | 16 | 0 | 0.0 | 4.8 | 0.03 | 0.64 | 0.64 | 97 | 1007.5 |
| 20260506182013 | 16 | 221 | 0.0 | 3.2 | 0.03 | 0.64 | 0.64 | 97 | 1007.4 |
| 20260506181530 | 16 | 0 | 0.0 | 8.0 | 0.03 | 0.64 | 0.64 | 97 | 1007.4 |
| 20260506181015 | 16 | 0 | 0.0 | 8.0 | 0.03 | 0.64 | 0.64 | 97 | 1007.5 |
| 20260506180513 | 16 | 0 | 0.0 | 8.0 | 0.05 | 0.64 | 0.64 | 97 | 1007.5 |
| 20260506180030 | 16 | 0 | 1.6 | 8.0 | 0.05 | 0.64 | 0.64 | 97 | 1007.5 |
| 20260506175513 | 16 | 0 | 1.6 | 8.0 | 0.05 | 0.64 | 0.64 | 97 | 1007.6 |
| 20260506175017 | 16 | 0 | 0.0 | 8.0 | 0.05 | 0.64 | 0.64 | 97 | 1007.6 |
| 20260506174529 | 15 | 193 | 1.6 | 8.0 | 0.03 | 0.61 | 0.61 | 97 | 1007.5 |
| 20260506174013 | 15 | 0 | 0.0 | 0.0 | 0.05 | 0.61 | 0.61 | 96 | 1007.6 |
| 20260506173513 | 15 | 0 | 0.0 | 0.0 | 0.05 | 0.61 | 0.61 | 96 | 1007.6 |
| 20260506173040 | 15 | 0 | 0.0 | 0.0 | 0.05 | 0.61 | 0.61 | 96 | 1007.6 |
| 20260506172512 | 15 | 0 | 0.0 | 0.0 | 0.05 | 0.61 | 0.61 | 96 | 1007.6 |
| 20260506172012 | 15 | 0 | 0.0 | 0.0 | 0.05 | 0.61 | 0.61 | 96 | 1007.7 |
| 20260506171532 | 15 | 0 | 0.0 | 0.0 | 0.05 | 0.61 | 0.61 | 96 | 1007.7 |
| 20260506171014 | 15 | 0 | 0.0 | 0.0 | 0.05 | 0.61 | 0.61 | 96 | 1007.7 |
| 20260506170514 | 15 | 0 | 0.0 | 0.0 | 0.03 | 0.58 | 0.58 | 96 | 1007.6 |
| 20260506170036 | 15 | 0 | 0.0 | 0.0 | 0.03 | 0.58 | 0.58 | 96 | 1007.7 |
| 20260506165514 | 15 | 0 | 0.0 | 0.0 | 0.03 | 0.58 | 0.58 | 96 | 1007.7 |
| 20260506165014 | 15 | 0 | 0.0 | 1.6 | 0.03 | 0.58 | 0.58 | 96 | 1007.6 |
| 20260506164533 | 15 | 0 | 0.0 | 1.6 | 0.03 | 0.58 | 0.58 | 96 | 1007.6 |
| 20260506164016 | 15 | 0 | 0.0 | 0.0 | 0.00 | 0.56 | 0.56 | 96 | 1007.7 |
| 20260506163512 | 15 | 0 | 0.0 | 0.0 | 0.00 | 0.56 | 0.56 | 95 | 1007.7 |
| 20260506163036 | 15 | 0 | 0.0 | 0.0 | 0.00 | 0.56 | 0.56 | 95 | 1007.7 |
| 20260506162517 | 15 | 0 | 0.0 | 0.0 | 0.00 | 0.56 | 0.56 | 95 | 1007.7 |
| 20260506162012 | 15 | 0 | 0.0 | 0.0 | 0.00 | 0.56 | 0.56 | 95 | 1007.7 |
| 20260506161532 | 15 | 0 | 0.0 | 9.7 | 0.00 | 0.56 | 0.56 | 95 | 1007.8 |
| 20260506161013 | 15 | 0 | 0.0 | 9.7 | 0.00 | 0.56 | 0.56 | 95 | 1007.7 |
| 20260506160515 | 15 | 0 | 0.0 | 9.7 | 0.00 | 0.56 | 0.56 | 95 | 1007.6 |
| 20260506160032 | 15 | 0 | 0.0 | 0.0 | 0.00 | 0.56 | 0.56 | 95 | 1007.6 |
| 20260506155514 | 15 | 0 | 0.0 | 0.0 | 0.03 | 0.56 | 0.56 | 95 | 1007.7 |
| 20260506155015 | 15 | 0 | 0.0 | 0.0 | 0.03 | 0.56 | 0.56 | 95 | 1007.6 |
| 20260506154532 | 15 | 0 | 0.0 | 9.7 | 0.05 | 0.56 | 0.56 | 95 | 1007.7 |
| 20260506154016 | 15 | 0 | 1.6 | 9.7 | 0.08 | 0.56 | 0.56 | 95 | 1007.6 |
| 20260506153514 | 15 | 0 | 0.0 | 11.3 | 0.10 | 0.56 | 0.56 | 95 | 1007.6 |
| 20260506153030 | 15 | 0 | 0.0 | 11.3 | 0.13 | 0.56 | 0.56 | 95 | 1007.6 |
| 20260506152514 | 15 | 0 | 0.0 | 11.3 | 0.18 | 0.56 | 0.56 | 95 | 1007.6 |
| 20260506152014 | 15 | 0 | 0.0 | 6.4 | 0.20 | 0.56 | 0.56 | 95 | 1007.5 |
| 20260506151531 | 15 | 0 | 0.0 | 14.5 | 0.23 | 0.56 | 0.56 | 95 | 1007.4 |
| 20260506151018 | 15 | 0 | 1.6 | 14.5 | 0.25 | 0.56 | 0.56 | 95 | 1007.3 |
| 20260506150513 | 15 | 0 | 1.6 | 12.9 | 0.25 | 0.56 | 0.56 | 95 | 1007.4 |
| 20260506150030 | 15 | 0 | 0.0 | 11.3 | 0.25 | 0.56 | 0.56 | 95 | 1007.6 |
| 20260506145514 | 15 | 0 | 3.2 | 11.3 | 0.25 | 0.53 | 0.53 | 95 | 1007.7 |
| 20260506145013 | 15 | 0 | 1.6 | 11.3 | 0.25 | 0.53 | 0.53 | 95 | 1007.7 |
| 20260506144534 | 15 | 0 | 0.0 | 11.3 | 0.23 | 0.51 | 0.51 | 95 | 1007.8 |
| 20260506144012 | 15 | 0 | 1.6 | 14.5 | 0.23 | 0.48 | 0.48 | 94 | 1007.8 |
| 20260506143513 | 15 | 0 | 0.0 | 17.7 | 0.23 | 0.46 | 0.46 | 94 | 1008.0 |
| 20260506143033 | 15 | 215 | 3.2 | 17.7 | 0.20 | 0.43 | 0.43 | 94 | 1008.0 |
| 20260506142519 | 15 | 0 | 1.6 | 11.3 | 0.15 | 0.38 | 0.38 | 94 | 1008.1 |
| 20260506142014 | 15 | 0 | 0.0 | 0.0 | 0.13 | 0.36 | 0.36 | 94 | 1008.1 |
| 20260506141533 | 15 | 0 | 0.0 | 0.0 | 0.13 | 0.33 | 0.33 | 94 | 1008.1 |
| 20260506141018 | 15 | 0 | 0.0 | 0.0 | 0.10 | 0.30 | 0.30 | 94 | 1008.1 |
| 20260506140512 | 15 | 0 | 0.0 | 6.4 | 0.13 | 0.30 | 0.30 | 94 | 1007.9 |
| 20260506140032 | 15 | 0 | 0.0 | 12.9 | 0.13 | 0.30 | 0.30 | 94 | 1007.9 |
| 20260506135513 | 15 | 190 | 0.0 | 12.9 | 0.10 | 0.28 | 0.28 | 94 | 1007.8 |
| 20260506135013 | 15 | 192 | 0.0 | 6.4 | 0.10 | 0.28 | 0.28 | 93 | 1007.7 |
| 20260506134532 | 15 | 0 | 0.0 | 6.4 | 0.10 | 0.28 | 0.28 | 93 | 1007.8 |
| 20260506134017 | 15 | 220 | 0.0 | 6.4 | 0.08 | 0.25 | 0.25 | 93 | 1007.7 |
| 20260506133516 | 15 | 0 | 0.0 | 8.0 | 0.08 | 0.23 | 0.23 | 93 | 1007.8 |
| 20260506133032 | 15 | 202 | 1.6 | 8.0 | 0.08 | 0.23 | 0.23 | 92 | 1007.8 |
| 20260506132522 | 15 | 0 | 0.0 | 0.0 | 0.10 | 0.23 | 0.23 | 92 | 1007.9 |
| 20260506132013 | 15 | 0 | 0.0 | 0.0 | 0.10 | 0.23 | 0.23 | 92 | 1007.9 |
| 20260506131544 | 15 | 0 | 0.0 | 3.2 | 0.10 | 0.20 | 0.20 | 92 | 1007.9 |
| 20260506131014 | 15 | 0 | 0.0 | 3.2 | 0.10 | 0.18 | 0.18 | 91 | 1008.1 |
| 20260506130514 | 15 | 0 | 0.0 | 8.0 | 0.10 | 0.18 | 0.18 | 91 | 1008.0 |
| 20260506130037 | 15 | 0 | 0.0 | 8.0 | 0.13 | 0.18 | 0.18 | 91 | 1007.8 |
| 20260506125513 | 15 | 207 | 0.0 | 8.0 | 0.13 | 0.18 | 0.18 | 91 | 1007.9 |
| 20260506125013 | 15 | 0 | 0.0 | 0.0 | 0.13 | 0.18 | 0.18 | 90 | 1008.0 |
| 20260506124529 | 15 | 0 | 0.0 | 0.0 | 0.15 | 0.18 | 0.18 | 90 | 1007.9 |
| 20260506124014 | 15 | 0 | 0.0 | 0.0 | 0.15 | 0.18 | 0.18 | 89 | 1008.1 |
| 20260506123513 | 15 | 0 | 0.0 | 3.2 | 0.13 | 0.15 | 0.15 | 88 | 1008.1 |
| 20260506123031 | 15 | 0 | 0.0 | 9.7 | 0.13 | 0.15 | 0.15 | 88 | 1008.2 |
| 20260506122513 | 15 | 0 | 0.0 | 9.7 | 0.10 | 0.13 | 0.13 | 87 | 1008.3 |
| 20260506122013 | 16 | 0 | 0.0 | 4.8 | 0.10 | 0.13 | 0.13 | 86 | 1008.2 |
| 20260506121530 | 16 | 0 | 0.0 | 3.2 | 0.10 | 0.10 | 0.10 | 85 | 1008.3 |
| 20260506121013 | 16 | 0 | 0.0 | 3.2 | 0.08 | 0.08 | 0.08 | 84 | 1008.4 |
| 20260506120515 | 16 | 0 | 0.0 | 3.2 | 0.08 | 0.08 | 0.08 | 83 | 1008.4 |
| 20260506120033 | 16 | 0 | 0.0 | 0.0 | 0.05 | 0.05 | 0.05 | 82 | 1008.5 |
| 20260506115516 | 16 | 0 | 0.0 | 0.0 | 0.05 | 0.05 | 0.05 | 81 | 1008.4 |
| 20260506115013 | 16 | 0 | 0.0 | 0.0 | 0.05 | 0.05 | 0.05 | 80 | 1008.4 |
| 20260506114534 | 16 | 0 | 0.0 | 9.7 | 0.03 | 0.03 | 0.03 | 80 | 1008.3 |
| 20260506114013 | 17 | 0 | 0.0 | 9.7 | 0.03 | 0.03 | 0.03 | 79 | 1008.2 |
| 20260506113514 | 17 | 0 | 0.0 | 0.0 | 0.03 | 0.03 | 0.03 | 78 | 1008.1 |
| 20260506113030 | 17 | 0 | 0.0 | 0.0 | 0.03 | 0.03 | 0.03 | 77 | 1007.9 |
| 20260506112513 | 17 | 0 | 0.0 | 0.0 | 0.03 | 0.03 | 0.03 | 76 | 1007.8 |
| 20260506112013 | 17 | 0 | 0.0 | 0.0 | 0.03 | 0.03 | 0.03 | 75 | 1007.9 |
| 20260506111531 | 17 | 0 | 0.0 | 6.4 | 0.00 | 0.00 | 0.00 | 75 | 1007.9 |
| 20260506111014 | 17 | 0 | 0.0 | 12.9 | 0.00 | 0.00 | 0.00 | 74 | 1007.8 |
| 20260506110513 | 17 | 0 | 0.0 | 12.9 | 0.00 | 0.00 | 0.00 | 74 | 1007.6 |
| 20260506110033 | 17 | 215 | 0.0 | 9.7 | 0.00 | 0.00 | 0.00 | 72 | 1007.6 |
| 20260506105513 | 18 | 0 | 0.0 | 16.1 | 0.00 | 0.00 | 0.00 | 71 | 1007.6 |
| 20260506105017 | 18 | 0 | 1.6 | 16.1 | 0.00 | 0.00 | 0.00 | 70 | 1007.4 |
| 20260506104533 | 18 | 0 | 0.0 | 9.7 | 0.00 | 0.00 | 0.00 | 69 | 1007.4 |
| 20260506104013 | 18 | 0 | 0.0 | 9.7 | 0.00 | 0.00 | 0.00 | 67 | 1007.4 |
| 20260506103515 | 18 | 0 | 1.6 | 9.7 | 0.00 | 0.00 | 0.00 | 67 | 1007.3 |
| 20260506103038 | 18 | 0 | 0.0 | 16.1 | 0.00 | 0.00 | 0.00 | 67 | 1007.3 |
| 20260506102516 | 18 | 0 | 4.8 | 16.1 | 0.00 | 0.00 | 0.00 | 66 | 1007.2 |
| 20260506102015 | 18 | 0 | 3.2 | 12.9 | 0.00 | 0.00 | 0.00 | 66 | 1007.1 |